CW6876 Weather Reports


time (UTC)temp
F
wind
direction
speed
knots
gust
knots
rain 1hr
in
rain 24hr
in
rain mn
in
humidity
%
barometer
mb
20260510204602 66 147 0.0 1.7 0.00 0.01 0.01 70 1014.4
20260510203027 68 210 0.0 4.3 0.00 0.01 0.01 67 1014.0
20260510201501 68 33 0.0 1.7 0.00 0.01 0.01 65 1014.2
20260510200044 69 93 0.0 2.6 0.00 0.01 0.01 61 1014.3
20260510194510 69 207 0.0 5.2 0.00 0.04 0.01 60 1014.3
20260510193051 69 354 0.0 4.3 0.00 0.04 0.01 68 1014.3
20260510191526 69 145 0.0 0.9 0.00 0.04 0.01 65 1014.3
20260510190103 69 113 0.9 3.5 0.00 0.04 0.01 66 1014.4
20260510184531 69 160 0.0 2.6 0.00 0.09 0.01 65 1014.5
20260510183001 69 281 0.0 7.0 0.00 0.09 0.01 65 1014.5
20260510181543 69 121 0.0 2.6 0.00 0.09 0.01 65 1014.6
20260510180013 70 152 0.0 4.3 0.00 0.09 0.01 64 1014.6
20260510174552 70 264 0.0 4.3 0.00 0.12 0.01 63 1014.6
20260510173021 70 324 0.0 5.2 0.00 0.12 0.01 66 1014.6
20260510171602 70 285 1.7 5.2 0.00 0.12 0.01 63 1014.5
20260510170027 70 191 1.7 8.7 0.00 0.12 0.01 67 1014.7
20260510164609 70 338 0.9 4.3 0.00 0.13 0.01 63 1014.5
20260510163050 70 288 1.7 7.0 0.00 0.13 0.01 63 1014.6
20260510161512 70 150 0.0 4.3 0.00 0.13 0.01 65 1014.2
20260510160058 69 208 0.0 5.2 0.00 0.13 0.01 64 1014.3
20260510154513 70 203 0.0 4.3 0.01 0.17 0.01 68 1014.3
20260510153059 69 116 0.0 2.6 0.01 0.17 0.01 71 1014.2
20260510151525 66 240 0.9 4.3 0.01 0.17 0.01 82 1014.4
20260510150118 63 128 0.0 3.5 0.01 0.17 0.01 90 1014.3
20260510144544 62 217 0.0 2.6 0.00 0.16 0.00 96 1014.3
20260510143012 60 203 0.0 0.0 0.00 0.16 0.00 96 1014.3
20260510141546 59 145 0.0 0.9 0.00 0.16 0.00 97 1014.3
20260510140013 59 164 0.0 1.7 0.00 0.16 0.00 97 1014.4
20260510134558 58 126 0.0 0.9 0.00 0.16 0.00 97 1014.3
20260510133033 56 146 0.0 0.0 0.00 0.16 0.00 97 1014.2
20260510131606 55 141 0.0 0.0 0.00 0.16 0.00 97 1014.2
20260510130032 55 149 0.0 0.0 0.00 0.16 0.00 97 1014.3
20260510124501 53 134 0.0 0.0 0.00 0.16 0.00 97 1014.2
20260510123047 51 352 0.0 0.0 0.00 0.16 0.00 97 1014.2
20260510121517 50 352 0.0 0.0 0.00 0.16 0.00 96 1014.0
20260510120104 50 352 0.0 0.0 0.00 0.16 0.00 96 1013.8
20260510114529 50 352 0.0 0.0 0.00 0.16 0.00 96 1013.6
20260510113125 49 351 0.0 0.0 0.00 0.16 0.00 96 1013.4
20260510111554 49 352 0.0 0.0 0.00 0.16 0.00 96 1013.2
20260510110006 49 0.0 0.0 0.00 0.16 0.00 96 1013.1
20260510104556 49 0.0 0.0 0.00 0.16 0.00 96 1013.0
20260510103019 49 0.0 0.0 0.00 0.16 0.00 96 1013.2
20260510101602 49 0.0 0.0 0.00 0.16 0.00 96 1012.9
20260510100031 49 351 0.0 0.0 0.00 0.16 0.00 96 1012.8
20260510094608 49 352 0.0 0.0 0.00 0.16 0.00 96 1012.4
20260510093050 49 352 0.0 0.0 0.00 0.16 0.00 96 1012.5
20260510091504 49 351 0.0 0.0 0.00 0.16 0.00 96 1012.2
20260510090050 49 352 0.0 0.0 0.00 0.16 0.00 96 1012.3
20260510084520 49 352 0.0 0.0 0.00 0.16 0.00 96 1012.3
20260510083102 49 112 0.0 0.0 0.00 0.16 0.00 96 1012.5
20260510081539 49 124 0.0 0.0 0.00 0.16 0.00 95 1012.4
20260510080110 49 124 0.0 1.7 0.00 0.16 0.00 96 1012.4
20260510074538 48 133 0.0 3.5 0.00 0.16 0.00 95 1012.0
20260510073013 48 152 0.0 0.0 0.00 0.16 0.00 95 1011.7
20260510071554 48 152 0.0 0.0 0.00 0.16 0.00 95 1011.8
20260510070025 49 152 0.0 0.0 0.00 0.16 0.00 94 1011.7
20260510064606 49 152 0.0 0.0 0.00 0.16 0.00 95 1011.8
20260510063040 50 152 0.0 0.0 0.00 0.16 0.00 95 1011.6
20260510061500 50 152 0.0 0.0 0.00 0.16 0.00 95 1011.4
20260510060055 50 106 0.0 0.0 0.00 0.16 0.00 95 1011.4
20260510054525 50 106 0.0 0.0 0.00 0.16 0.00 95 1011.5
20260510053124 50 131 0.0 0.0 0.00 0.16 0.00 95 1011.6
20260510051542 50 131 0.0 0.0 0.00 0.16 0.00 94 1011.7
20260510050007 50 130 0.0 0.0 0.00 0.16 0.00 94 1011.8
20260510044607 50 129 0.0 0.0 0.00 0.16 0.00 94 1011.9
20260510043030 50 129 0.0 0.0 0.00 0.16 0.00 94 1012.0
20260510041610 50 130 0.0 0.0 0.00 0.16 0.00 94 1011.9
20260510040045 50 129 0.0 0.0 0.00 0.16 0.00 94 1012.0
20260510034508 51 130 0.0 0.0 0.00 0.16 0.16 94 1012.2
20260510033058 51 130 0.0 0.0 0.00 0.16 0.16 94 1012.0
20260510031518 51 129 0.0 0.0 0.00 0.16 0.16 94 1011.8
20260510030113 51 129 0.0 0.0 0.00 0.16 0.16 94 1011.7
20260510024537 52 130 0.0 0.0 0.00 0.16 0.16 94 1011.7
20260510023007 52 134 0.0 0.0 0.00 0.16 0.16 94 1011.8
20260510021550 52 134 0.0 0.0 0.00 0.16 0.16 93 1011.6
20260510020022 52 73 0.0 0.0 0.00 0.16 0.16 94 1011.5
20260510014607 53 73 0.0 0.0 0.00 0.16 0.16 93 1011.3
20260510013034 53 74 0.0 0.0 0.00 0.16 0.16 93 1011.1
20260510011613 53 74 0.0 0.0 0.00 0.16 0.16 93 1011.1
20260510010037 54 74 0.0 0.0 0.00 0.16 0.16 93 1011.1
20260510004505 54 74 0.0 0.0 0.00 0.16 0.16 93 1010.9
20260510003051 54 73 0.0 0.0 0.00 0.16 0.16 94 1010.7
20260510001511 55 74 0.0 0.0 0.00 0.16 0.16 93 1010.7
20260509234536 55 73 0.0 0.0 0.00 0.16 0.16 94 1010.5
20260509233106 56 74 0.0 0.0 0.00 0.16 0.16 94 1010.6
20260509231533 56 74 0.0 0.0 0.00 0.16 0.16 94 1010.6
20260509230016 56 65 0.0 0.0 0.00 0.16 0.16 94 1010.6
20260509224541 56 65 0.0 0.0 0.00 0.16 0.16 94 1010.5
20260509223013 56 65 0.0 0.0 0.00 0.16 0.16 94 1010.5
20260509221549 56 65 0.0 0.0 0.00 0.16 0.16 94 1010.4
20260509220019 56 65 0.0 0.0 0.00 0.16 0.16 93 1010.5
20260509214556 56 65 0.0 0.0 0.00 0.16 0.16 93 1010.5
20260509213031 56 65 0.0 0.0 0.00 0.16 0.16 94 1010.4
20260509211607 55 65 0.0 0.0 0.00 0.16 0.16 93 1010.6
20260509210037 56 65 0.0 0.0 0.00 0.16 0.16 94 1010.7